EW8588 Weather Reports


Display with metric or nautical units.
time (UTC)temp
F
wind
direction
speed
MPH
gust
MPH
rain 1hr
in
rain 24hr
in
rain mn
in
humidity
%
barometer
mb
20260506181506 82 106 1.0 4.0 0.00 0.00 0.00 83 1008.6
20260506180007 82 129 0.0 6.0 0.00 0.00 0.00 83 1008.6
20260506174506 82 158 1.0 4.0 0.00 0.00 0.00 82 1008.6
20260506173005 82 177 1.0 4.0 0.00 0.00 0.00 83 1008.8
20260506171504 83 148 2.0 5.0 0.00 0.00 0.00 82 1008.9
20260506170000 81 204 1.0 4.0 0.00 0.00 0.00 85 1009.2
20260506164558 80 150 0.0 3.0 0.00 0.00 0.00 87 1009.1
20260506163056 80 148 0.0 4.0 0.00 0.00 0.00 89 1008.9
20260506161601 79 134 0.0 3.0 0.00 0.00 0.00 90 1008.9
20260506160051 79 140 0.0 3.0 0.00 0.00 0.00 90 1008.9
20260506154549 79 155 1.0 4.0 0.00 0.00 0.00 90 1008.7
20260506153047 79 112 1.0 3.0 0.00 0.00 0.00 91 1008.4
20260506151546 78 147 0.0 3.0 0.00 0.00 0.00 91 1008.3
20260506150055 78 122 1.0 6.0 0.00 0.00 0.00 91 1008.1
20260506144559 78 150 0.0 2.0 0.00 0.00 0.00 92 1007.9
20260506143050 78 167 0.0 4.0 0.00 0.00 0.00 91 1007.9
20260506141542 78 115 0.0 2.0 0.00 0.00 0.00 92 1008.1
20260506140057 78 153 0.0 2.0 0.00 0.00 0.00 92 1008.2
20260506134540 78 186 0.0 4.0 0.00 0.00 0.00 93 1008.0
20260506133038 77 134 0.0 2.0 0.00 0.00 0.00 93 1008.2
20260506131543 77 165 0.0 1.0 0.00 0.00 0.00 93 1008.3
20260506130050 76 163 0.0 2.0 0.00 0.00 0.00 93 1008.2
20260506124536 76 136 0.0 4.0 0.00 0.00 0.00 94 1008.1
20260506123040 76 136 0.0 2.0 0.00 0.00 0.00 94 1008.0
20260506121534 76 184 0.0 3.0 0.00 0.00 0.00 94 1007.8
20260506120034 76 153 0.0 1.0 0.00 0.00 0.00 94 1007.6
20260506114533 75 160 0.0 2.0 0.00 0.00 0.00 94 1007.4
20260506113036 75 140 1.0 4.0 0.00 0.00 0.00 94 1007.2
20260506111533 75 164 0.0 3.0 0.00 0.00 0.00 94 1007.0
20260506110040 75 128 0.0 2.0 0.00 0.00 0.00 94 1006.9
20260506104532 75 146 0.0 2.0 0.00 0.00 0.00 94 1007.1
20260506103030 75 176 0.0 1.0 0.00 0.00 0.00 94 1007.1
20260506101533 75 139 0.0 2.0 0.00 0.00 0.00 94 1006.9
20260506100029 75 105 0.0 1.0 0.00 0.00 0.00 93 1006.8
20260506094528 75 148 0.0 1.0 0.00 0.00 0.00 94 1006.7
20260506093032 75 159 0.0 1.0 0.00 0.00 0.00 93 1006.9
20260506091526 76 120 0.0 1.0 0.00 0.00 0.00 93 1006.9
20260506090024 76 157 0.0 4.0 0.00 0.00 0.00 92 1006.8
20260506084523 76 168 0.0 3.0 0.00 0.00 0.00 92 1007.0
20260506083028 76 185 0.0 3.0 0.00 0.00 0.00 92 1007.1
20260506081520 76 78 0.0 3.0 0.00 0.00 0.00 92 1007.2
20260506073014 76 201 0.0 3.0 0.00 0.00 0.00 91 1007.8
20260506071512 76 143 0.0 2.0 0.00 0.00 0.00 91 1007.9
20260506061510 76 136 1.0 7.0 0.00 0.00 0.00 91 1007.8
20260506044506 77 133 0.0 5.0 0.00 0.00 0.00 90 1007.9
20260506043005 77 160 1.0 5.0 0.00 0.00 0.00 90 1007.8
20260506041502 77 148 1.0 7.0 0.00 0.00 0.00 90 1007.8
20260506040002 77 181 1.0 6.0 0.00 0.00 0.00 90 1007.7
20260506034503 77 169 2.0 5.0 0.00 0.00 0.00 90 1007.7
20260506033100 77 136 1.0 6.0 0.00 0.00 0.00 90 1007.6
20260506031610 77 137 1.0 4.0 0.00 0.00 0.00 90 1007.5
20260506030059 76 172 0.0 3.0 0.00 0.00 0.00 90 1007.5
20260506024602 76 183 0.0 4.0 0.00 0.00 0.00 90 1007.3
20260506023105 76 79 0.0 4.0 0.00 0.00 0.00 90 1006.9
20260506021557 76 83 1.0 4.0 0.00 0.00 0.00 90 1006.7
20260506020058 76 140 1.0 5.0 0.00 0.00 0.00 90 1006.5
20260506014557 77 139 1.0 5.0 0.00 0.00 0.00 89 1006.4
20260506013108 77 127 1.0 4.0 0.00 0.00 0.00 88 1006.3
20260506011559 77 108 0.0 5.0 0.00 0.00 0.00 87 1006.1
20260506010118 78 144 2.0 8.0 0.00 0.00 0.00 87 1005.9
20260506004554 78 145 1.0 5.0 0.00 0.00 0.00 86 1005.7
20260506003101 78 153 1.0 4.0 0.00 0.00 0.00 86 1005.7
20260506001601 78 120 1.0 6.0 0.00 0.00 0.00 85 1005.6
20260506000054 78 105 0.0 7.0 0.00 0.00 0.00 85 1005.7
20260505234553 79 97 2.0 6.0 0.00 0.00 0.00 84 1005.6
20260505233104 79 122 1.0 6.0 0.00 0.00 0.00 84 1005.7
20260505231551 79 150 2.0 9.0 0.00 0.00 0.00 83 1005.7
20260505230055 79 108 2.0 9.0 0.00 0.00 0.00 82 1005.8
20260505224551 80 258 1.0 6.0 0.00 0.00 0.00 82 1005.6
20260505223049 80 232 1.0 8.0 0.00 0.00 0.00 82 1005.7
20260505221549 80 127 1.0 9.0 0.00 0.00 0.00 83 1005.8
20260505220046 79 91 1.0 9.0 0.00 0.00 0.00 84 1005.9
20260505214550 79 122 2.0 8.0 0.00 0.00 0.00 84 1006.2
20260505213047 80 232 2.0 7.0 0.00 0.00 0.00 83 1006.2
20260505211547 80 126 3.0 7.0 0.00 0.00 0.00 83 1006.3
20260505210044 80 101 2.0 7.0 0.00 0.00 0.00 83 1006.4
20260505204540 80 185 2.0 7.0 0.00 0.00 0.00 82 1006.7
20260505203039 80 103 2.0 9.0 0.00 0.00 0.00 83 1007.0
20260505201548 80 131 2.0 10.0 0.00 0.00 0.00 83 1007.1
20260505200038 80 226 2.0 7.0 0.00 0.00 0.00 83 1007.3
20260505194538 80 135 3.0 7.0 0.00 0.00 0.00 83 1007.4
20260505193035 80 98 1.0 7.0 0.00 0.00 0.00 83 1007.4
20260505191536 79 135 2.0 7.0 0.00 0.00 0.00 85 1007.5
20260505190038 79 149 2.0 7.0 0.00 0.00 0.00 85 1007.6
20260505184535 79 176 1.0 5.0 0.00 0.00 0.00 85 1007.7
20260505183049 78 165 1.0 4.0 0.00 0.00 0.00 86 1007.8